Flag Weather past 2 weeks in Redlands, California, U.S.A.

Now
46 °F

Passing clouds.


Feels Like: 45 °F
Forecast: 49 / 69 °F
Wind: 3 mph from South

Location: Riverside / March Air Force Base

Current Time: Nov 23, 2014 at 1:44:51 AM

Latest Report: Nov 23, 2014 at 12:58 AM


Visibility: 10 mi

Pressure: 30.03 "Hg

Humidity: 94%

Dew point: 44 °F

Location of RedlandsLocation

Historic Weather in Redlands — Graph

°F

Redlands temperature yesterday

Maximum temperature yesterday: 70 °F (at 12:58 PM)
Minimum temperature yesterday: 40 °F (at 4:58 AM)
Average temperature yesterday: 54 °F

Past Weeks' High & Low Weather Summary

 TemperatureHumidityPressure
High90 °F (Nov 8, 1:58 PM)100% (Nov 10, 4:58 AM)30.21 "Hg (Nov 10, 4:58 AM)
Low39 °F (Nov 19, 3:58 AM)5% (Nov 16, 1:58 PM)29.80 "Hg (Nov 9, 3:58 PM)
Average59 °F58%30.02 "Hg
* Reported Nov 8 12:58 AM — Nov 23 12:58 AM, Redlands, Weather by CustomWeather, © 2014

Note: Actual official high and low records may vary slightly from our data, if they occured in-between our weather recording intervals... More about our weather records

Advertising

Redlands weather history for previous 24 hours

 ConditionsComfort  
Time TempWeatherWind HumidityBarometerVisibility
12:58 AM
Nov 23
46 °FPassing clouds.3 mph94%30.03 "Hg10 mi
11:58 PM
Nov 22
46 °FClear.No wind87%30.04 "Hg10 mi
10:58 PM48 °FClear.No wind86%30.05 "Hg10 mi
9:58 PM51 °FClear.3 mph85%30.05 "Hg10 mi
8:58 PM52 °FClear.No wind78%30.04 "Hg10 mi
7:58 PM54 °FClear.1 mph72%30.03 "Hg10 mi
6:58 PM59 °FClear.No wind63%30.03 "Hg10 mi
5:58 PM61 °FClear.5 mph56%30.03 "Hg10 mi
4:58 PM64 °FClear.7 mph50%30.01 "Hg10 mi
3:58 PM68 °FSunny.9 mph40%30.01 "Hg10 mi
2:58 PM69 °FSunny.8 mph39%30.02 "Hg10 mi
1:58 PM69 °FSunny.5 mph36%30.03 "Hg10 mi
12:58 PM70 °FSunny.6 mph34%30.04 "Hg10 mi
11:58 AM68 °FSunny.5 mph37%30.06 "Hg10 mi
10:58 AM64 °FSunny.No wind50%30.10 "Hg10 mi
9:58 AM58 °FSunny.1 mph63%30.11 "Hg10 mi
8:58 AM55 °FSunny.3 mph71%30.10 "Hg10 mi
7:58 AM48 °FSunny.2 mph87%30.11 "Hg10 mi
6:58 AM43 °FSunny.No wind97%30.10 "Hg10 mi
5:58 AM41 °FClear.No wind97%30.09 "Hg10 mi
4:58 AM40 °FClear.No wind91%30.08 "Hg10 mi
3:58 AM42 °FClear.2 mph93%30.07 "Hg10 mi
2:58 AM42 °FClear.No wind88%30.08 "Hg10 mi
1:58 AM43 °FClear.No wind89%30.08 "Hg10 mi
Weather by CustomWeather, © 2014

See weather overviewHow to use our weather pages